GW0774 Weather Reports


time (UTC)temp
F
wind
direction
speed
knots
gust
knots
rain 1hr
in
rain 24hr
in
rain mn
in
humidity
%
barometer
mb
20260509121036 57 272 6.1 12.2 0.00 0.25 0.00 82 999.2
20260509120536 57 246 5.2 12.2 0.00 0.25 0.00 82 999.4
20260509120058 57 283 5.2 14.8 0.00 0.25 0.00 81 999.5
20260509115535 57 253 7.0 14.8 0.00 0.39 0.25 81 999.4
20260509115035 57 265 6.1 14.8 0.00 0.39 0.25 81 999.5
20260509114543 57 250 7.0 13.9 0.00 0.39 0.25 81 999.6
20260509114037 57 281 4.3 15.6 0.00 0.39 0.25 81 999.6
20260509113534 57 300 7.0 15.6 0.00 0.39 0.25 81 999.5
20260509113053 57 281 6.1 15.6 0.00 0.39 0.25 81 999.6
20260509112538 57 294 6.1 12.2 0.00 0.39 0.25 81 999.6
20260509112036 57 339 7.0 11.3 0.00 0.39 0.25 80 999.6
20260509111542 57 293 6.1 11.3 0.00 0.39 0.25 80 999.6
20260509111036 57 242 7.0 11.3 0.00 0.39 0.25 81 999.6
20260509110538 57 259 5.2 11.3 0.00 0.39 0.25 81 999.6
20260509110053 57 252 5.2 12.2 0.00 0.39 0.25 81 999.7
20260509105535 57 275 7.0 14.8 0.00 0.40 0.25 81 999.8
20260509105035 57 291 6.1 14.8 0.00 0.40 0.25 81 999.7
20260509104547 57 269 5.2 13.0 0.00 0.40 0.25 82 999.8
20260509104035 57 250 6.1 15.6 0.00 0.40 0.25 81 999.7
20260509103538 57 254 7.0 15.6 0.00 0.40 0.25 81 999.6
20260509103048 57 294 6.1 15.6 0.00 0.40 0.25 81 999.6
20260509102538 57 265 5.2 13.0 0.00 0.40 0.25 81 999.7
20260509102040 57 277 7.0 14.8 0.00 0.40 0.25 81 999.7
20260509101553 57 294 7.8 15.6 0.00 0.40 0.25 80 999.6
20260509101039 57 259 8.7 15.6 0.00 0.40 0.25 81 999.7
20260509100540 56 279 6.1 12.2 0.00 0.40 0.25 81 999.7
20260509100045 56 304 5.2 11.3 0.00 0.40 0.25 81 999.6
20260509095540 57 265 4.3 13.0 0.00 0.44 0.25 80 999.7
20260509095039 57 264 5.2 13.0 0.00 0.44 0.25 80 999.7
20260509094548 57 290 7.0 12.2 0.00 0.44 0.25 79 999.7
20260509094039 57 271 6.1 13.9 0.00 0.44 0.25 80 999.8
20260509093539 57 254 6.1 13.9 0.00 0.44 0.25 81 999.8
20260509093053 56 269 7.0 13.9 0.00 0.44 0.25 81 999.6
20260509092538 56 243 6.1 12.2 0.00 0.44 0.25 82 999.5
20260509092043 56 268 4.3 12.2 0.00 0.44 0.25 82 999.5
20260509091602 56 290 4.3 14.8 0.00 0.44 0.25 82 999.6
20260509091039 56 250 6.1 14.8 0.00 0.44 0.25 82 999.5
20260509090540 56 242 4.3 11.3 0.00 0.44 0.25 83 999.4
20260509090047 56 260 6.1 12.2 0.00 0.44 0.25 82 999.3
20260509085538 56 256 6.1 12.2 0.00 0.44 0.25 82 999.4
20260509085042 56 257 6.1 13.0 0.00 0.44 0.25 82 999.4
20260509084545 56 250 7.0 13.0 0.00 0.44 0.25 81 999.5
20260509084039 56 249 7.8 12.2 0.00 0.44 0.25 81 999.5
20260509083538 56 241 5.2 13.0 0.00 0.44 0.25 81 999.4
20260509083044 56 254 5.2 13.9 0.00 0.44 0.25 81 999.2
20260509082539 56 281 7.0 13.9 0.00 0.44 0.25 81 999.1
20260509082042 56 284 7.0 15.6 0.00 0.44 0.25 81 999.1
20260509081551 56 277 8.7 15.6 0.00 0.44 0.25 81 999.2
20260509081039 56 277 8.7 14.8 0.00 0.44 0.25 81 999.1
20260509080538 56 284 9.6 14.8 0.00 0.44 0.25 81 999.0
20260509080057 56 290 8.7 13.9 0.00 0.44 0.25 81 999.1
20260509075542 56 323 7.0 12.2 0.00 0.44 0.25 82 999.1
20260509075042 56 298 7.8 14.8 0.00 0.44 0.25 81 999.3
20260509074552 56 289 9.6 14.8 0.00 0.44 0.25 81 999.4
20260509074040 56 288 9.6 14.8 0.00 0.44 0.25 81 999.3
20260509073539 56 290 9.6 14.8 0.00 0.44 0.25 82 999.2
20260509073122 56 298 6.1 11.3 0.00 0.44 0.25 83 999.3
20260509072542 56 251 5.2 9.6 0.00 0.44 0.25 83 999.2
20260509072038 56 249 4.3 9.6 0.00 0.44 0.25 83 999.3
20260509071549 56 263 4.3 9.6 0.00 0.44 0.25 82 999.4
20260509071039 56 240 5.2 9.6 0.00 0.44 0.25 83 999.4
20260509070541 56 264 4.3 12.2 0.00 0.44 0.25 83 999.4
20260509070055 56 267 5.2 12.2 0.00 0.44 0.25 83 999.5
20260509065538 56 252 5.2 11.3 0.00 0.44 0.25 83 999.5
20260509065038 56 281 6.1 11.3 0.00 0.44 0.25 84 999.5
20260509064548 56 252 3.5 11.3 0.00 0.44 0.25 83 999.5
20260509064044 57 297 4.3 10.4 0.00 0.44 0.25 83 999.6
20260509063539 57 252 4.3 11.3 0.00 0.44 0.25 82 999.6
20260509063059 57 252 6.1 11.3 0.00 0.44 0.25 82 999.5
20260509062539 57 300 5.2 17.4 0.00 0.44 0.25 81 999.5
20260509062038 58 253 6.1 17.4 0.00 0.44 0.25 79 999.6
20260509061556 58 265 7.0 15.6 0.00 0.44 0.25 80 999.5
20260509061039 58 299 7.8 15.6 0.00 0.44 0.25 81 999.5
20260509060539 58 251 6.1 13.0 0.00 0.44 0.25 81 999.6
20260509055538 58 245 7.8 14.8 0.00 0.44 0.25 82 999.6
20260509055041 59 242 7.0 16.5 0.00 0.44 0.25 83 999.7
20260509054607 59 240 8.7 16.5 0.00 0.44 0.25 83 999.6
20260509054038 59 263 7.8 14.8 0.00 0.44 0.25 84 999.6
20260509053540 59 296 8.7 14.8 0.00 0.44 0.25 84 999.5
20260509053049 59 269 7.0 13.9 0.00 0.44 0.25 85 999.5
20260509052538 59 262 7.0 13.9 0.00 0.44 0.25 85 999.4
20260509052039 59 250 7.8 14.8 0.00 0.44 0.25 85 999.3
20260509051548 59 245 7.0 14.8 0.00 0.44 0.25 86 999.3
20260509051041 59 252 7.8 13.0 0.00 0.44 0.25 86 999.2
20260509050538 59 263 7.0 13.0 0.00 0.44 0.25 87 999.3
20260509050044 59 286 7.0 13.9 0.00 0.44 0.25 88 999.2
20260509045539 59 251 7.0 14.8 0.00 0.44 0.25 87 999.1
20260509045039 59 261 7.8 15.6 0.00 0.44 0.25 87 999.1
20260509044550 59 253 7.8 15.6 0.00 0.44 0.25 87 999.1
20260509044038 59 269 7.0 13.9 0.00 0.44 0.25 88 999.1
20260509043539 59 258 7.0 13.9 0.00 0.44 0.25 88 999.2
20260509043053 59 238 7.0 16.5 0.00 0.44 0.25 88 999.3
20260509042541 60 248 8.7 16.5 0.00 0.44 0.25 87 999.1
20260509042038 60 249 8.7 16.5 0.00 0.44 0.25 87 999.2
20260509041551 60 267 7.0 15.6 0.00 0.44 0.25 86 999.2
20260509041041 60 273 7.0 15.6 0.00 0.44 0.25 86 999.2
20260509040539 60 274 7.8 15.6 0.00 0.44 0.25 86 999.4
20260509040121 61 316 7.0 15.6 0.00 0.44 0.25 88 999.3
20260509035539 60 275 7.8 15.6 0.00 0.44 0.25 87 999.5
20260509035039 60 301 8.7 17.4 0.00 0.44 0.25 86 999.5
20260509034555 60 242 7.0 17.4 0.00 0.44 0.25 86 999.6
20260509034038 60 259 9.6 17.4 0.00 0.44 0.25 85 999.4
20260509033539 60 238 9.6 20.0 0.00 0.44 0.25 86 999.3
20260509033049 60 281 10.4 20.0 0.00 0.44 0.25 86 999.3
20260509032540 61 278 7.8 22.6 0.00 0.44 0.25 87 999.2
20260509032045 61 241 9.6 22.6 0.00 0.44 0.25 86 999.2
20260509031549 61 275 6.1 20.9 0.00 0.44 0.25 87 999.3
20260509031038 61 273 9.6 20.9 0.00 0.44 0.25 86 999.2
20260509030540 62 250 11.3 20.9 0.00 0.44 0.25 84 999.1
20260509030050 62 218 9.6 19.1 0.00 0.44 0.25 85 998.9
20260509025544 62 294 12.2 21.7 0.00 0.44 0.25 83 998.8
20260509025044 62 256 7.8 21.7 0.00 0.44 0.25 85 998.7
20260509024549 62 288 11.3 21.7 0.00 0.44 0.25 85 998.6
20260509024039 62 277 9.6 20.9 0.00 0.44 0.25 86 998.6
20260509023538 62 286 12.2 20.9 0.00 0.44 0.25 86 998.6
20260509023047 62 275 12.2 22.6 0.06 0.44 0.25 86 998.5
20260509022541 61 279 13.0 22.6 0.18 0.44 0.25 86 998.5
20260509022041 62 280 11.3 18.2 0.19 0.44 0.25 89 998.5
20260509021547 61 270 10.4 20.0 0.19 0.44 0.25 89 998.5
20260509021040 62 276 8.7 20.9 0.19 0.44 0.25 89 998.7
20260509020539 61 269 11.3 20.9 0.19 0.44 0.25 88 998.6
20260509020049 61 264 12.2 20.0 0.19 0.44 0.25 90 998.6
20260509015541 61 265 11.3 20.0 0.19 0.44 0.25 90 998.6
20260509015040 61 296 11.3 20.0 0.19 0.44 0.25 92 998.6
20260509014548 60 315 9.6 20.0 0.19 0.44 0.25 92 998.7
20260509014041 60 281 10.4 16.5 0.19 0.44 0.25 92 998.8
20260509013538 60 267 9.6 14.8 0.18 0.44 0.25 91 998.8
20260509013050 61 250 8.7 17.4 0.11 0.36 0.17 89 999.0
20260509012539 62 248 8.7 17.4 0.00 0.25 0.06 87 998.9
20260509012040 62 298 12.2 18.2 0.00 0.25 0.06 85 998.9
20260509011603 62 284 11.3 18.2 0.00 0.25 0.06 84 999.0
20260509011043 62 242 8.7 18.2 0.00 0.25 0.06 87 999.1
20260509010539 62 266 11.3 18.2 0.00 0.25 0.06 85 999.3
20260509010051 62 340 7.8 16.5 0.00 0.25 0.06 85 999.3
20260509005539 62 300 11.3 18.2 0.00 0.25 0.06 84 999.4
20260509005038 62 298 9.6 18.2 0.00 0.25 0.06 85 999.5
20260509004605 62 272 7.0 17.4 0.00 0.25 0.06 85 999.7
20260509004040 62 276 7.8 17.4 0.00 0.25 0.06 86 999.7
20260509003539 62 300 9.6 17.4 0.00 0.25 0.06 85 999.9
20260509003053 62 269 10.4 18.2 0.00 0.25 0.06 85 1000.2
20260509002538 61 312 11.3 18.2 0.00 0.25 0.06 86 1000.1
20260509002040 61 269 9.6 17.4 0.00 0.25 0.06 87 1000.1
20260509001548 61 294 8.7 17.4 0.00 0.24 0.05 89 1000.1
20260509001040 60 312 11.3 17.4 0.00 0.24 0.05 89 1000.1
20260509000539 60 321 8.7 17.4 0.00 0.24 0.05 92 1000.0
20260509000050 59 294 8.7 17.4 0.00 0.24 0.05 93 1000.0
20260508235542 59 281 10.4 20.9 0.00 0.24 0.05 92 999.9
20260508235041 59 306 11.3 20.9 0.00 0.24 0.05 91 999.9
20260508234549 60 261 10.4 27.8 0.00 0.24 0.05 88 999.8
20260508234040 61 292 14.8 27.8 0.00 0.24 0.05 83 999.6
20260508233539 62 292 12.2 23.5 0.00 0.24 0.05 78 999.5
20260508233050 63 338 8.7 17.4 0.00 0.24 0.05 79 999.4
20260508232546 62 274 8.7 17.4 0.00 0.24 0.05 80 999.5
20260508232039 62 300 7.0 16.5 0.00 0.24 0.05 80 999.7
20260508231554 62 306 8.7 16.5 0.00 0.24 0.05 80 999.8
20260508231039 62 277 7.8 15.6 0.00 0.24 0.05 78 999.8
20260508230539 62 257 6.1 12.2 0.00 0.24 0.05 77 999.6
20260508230046 63 279 5.2 12.2 0.00 0.24 0.05 78 999.6
20260508225539 63 317 2.6 7.8 0.00 0.24 0.05 78 999.7
20260508225040 63 249 1.7 9.6 0.00 0.24 0.05 78 999.6
20260508224545 63 274 3.5 9.6 0.00 0.24 0.05 78 999.8
20260508224039 63 289 5.2 9.6 0.00 0.24 0.05 77 1000.1
20260508223539 63 271 5.2 8.7 0.00 0.24 0.05 79 1000.1
20260508223050 63 226 3.5 9.6 0.00 0.24 0.05 79 1000.3
20260508222540 63 273 3.5 9.6 0.00 0.24 0.05 78 1000.1
20260508222039 63 259 3.5 7.8 0.00 0.24 0.05 78 1000.2
20260508221551 64 42 4.3 7.8 0.00 0.24 0.05 78 1000.2
20260508221041 65 279 2.6 6.1 0.00 0.24 0.05 79 1000.5
20260508220539 64 51 2.6 6.1 0.00 0.24 0.05 79 1000.5
20260508220054 64 257 1.7 7.0 0.00 0.24 0.05 80 1000.5
20260508215539 63 240 3.5 7.0 0.00 0.24 0.05 79 1000.5
20260508215039 63 289 2.6 7.8 0.00 0.24 0.05 78 1000.6
20260508214554 63 18 2.6 7.8 0.00 0.24 0.05 80 1000.5
20260508214038 63 260 0.0 7.8 0.00 0.24 0.05 81 1000.4
20260508213539 63 282 1.7 7.8 0.00 0.24 0.05 80 1000.3
20260508213045 62 292 1.7 7.0 0.00 0.24 0.05 81 1000.2
20260508212538 62 320 1.7 8.7 0.00 0.24 0.05 81 1000.1
20260508212035 62 201 1.7 8.7 0.00 0.24 0.05 82 1000.1
20260508211549 62 0 2.6 8.7 0.00 0.24 0.05 82 1000.0
20260508211039 61 265 0.0 8.7 0.00 0.24 0.05 83 1000.0
20260508210539 61 300 2.6 8.7 0.00 0.24 0.05 83 1000.0
20260508210050 61 269 1.7 7.0 0.00 0.24 0.05 84 999.9
20260508205538 60 234 2.6 7.0 0.00 0.24 0.05 85 999.8
20260508205038 60 252 0.9 7.0 0.00 0.24 0.05 86 999.7
20260508204549 59 279 2.6 7.0 0.00 0.24 0.05 86 999.7
20260508204042 59 219 2.6 5.2 0.00 0.24 0.05 86 999.7
20260508203538 59 277 0.9 5.2 0.00 0.24 0.05 87 999.8
20260508203051 59 279 1.7 6.1 0.00 0.24 0.05 86 999.8
20260508202540 59 251 1.7 7.8 0.00 0.24 0.05 86 999.9
20260508202039 59 273 0.9 7.8 0.00 0.24 0.05 87 1000.0
20260508201545 59 269 1.7 6.1 0.00 0.24 0.05 87 1000.0
20260508201042 59 245 2.6 7.8 0.00 0.24 0.05 88 1000.1
20260508200541 58 246 1.7 7.8 0.00 0.24 0.05 89 1000.0
20260508200046 58 100 1.7 7.0 0.00 0.24 0.05 90 1000.1
20260508195538 58 224 0.9 4.3 0.00 0.24 0.05 90 1000.0
20260508195038 57 300 0.9 7.0 0.00 0.24 0.05 90 1000.0
20260508194555 57 271 1.7 7.0 0.00 0.24 0.05 90 999.9
20260508194036 57 115 0.0 3.5 0.00 0.24 0.05 90 999.8
20260508193537 57 0 0.9 4.3 0.00 0.24 0.05 90 999.9
20260508193103 57 209 0.0 4.3 0.00 0.24 0.05 89 1000.0
20260508192537 57 106 0.9 4.3 0.00 0.24 0.05 90 999.9
20260508192037 57 263 0.9 5.2 0.00 0.24 0.05 90 1000.0
20260508191546 57 263 0.9 5.2 0.00 0.24 0.05 90 1000.0
20260508191036 57 111 0.9 4.3 0.00 0.24 0.05 90 1000.1
20260508190538 57 90 0.9 7.0 0.00 0.24 0.05 91 1000.1
20260508190046 57 284 1.7 7.0 0.00 0.24 0.05 92 1000.1
20260508185537 57 329 1.7 7.0 0.00 0.24 0.05 93 1000.3
20260508185036 57 240 0.0 3.5 0.00 0.24 0.05 93 1000.3
20260508184559 56 240 0.9 3.5 0.00 0.24 0.05 93 1000.3
20260508184037 56 0 0.0 2.6 0.00 0.24 0.05 93 1000.6
20260508183536 56 0 0.0 1.7 0.00 0.24 0.05 93 1000.5
20260508183048 56 0 0.0 3.5 0.00 0.24 0.05 93 1000.5
20260508182536 56 240 0.9 3.5 0.00 0.24 0.05 93 1000.6
20260508182036 56 240 0.0 2.6 0.00 0.24 0.05 93 1000.5
20260508181549 56 240 0.0 1.7 0.00 0.24 0.05 93 1000.4
20260508181039 56 240 0.0 1.7 0.00 0.24 0.05 93 1000.4
20260508180536 56 0 0.0 1.7 0.00 0.24 0.05 94 1000.3
20260508180050 56 174 0.0 2.6 0.00 0.24 0.05 94 1000.3
20260508175535 56 97 0.0 2.6 0.00 0.24 0.05 94 1000.4
20260508175039 56 78 0.9 2.6 0.00 0.24 0.05 94 1000.4
20260508174545 56 0 0.0 2.6 0.00 0.23 0.04 94 1000.5
20260508174036 56 219 0.0 2.6 0.00 0.23 0.04 94 1000.6
20260508173537 56 0 0.0 2.6 0.00 0.23 0.04 94 1000.6
20260508173044 55 0 0.9 2.6 0.00 0.23 0.04 95 1000.6
20260508172536 55 0 0.0 2.6 0.00 0.23 0.04 95 1000.6
20260508172036 55 0 0.0 0.0 0.00 0.23 0.04 94 1000.6
20260508171544 55 0 0.0 0.0 0.00 0.23 0.04 94 1000.5
20260508171039 55 0 0.0 0.0 0.00 0.23 0.04 94 1000.5
20260508170536 54 0 0.0 0.0 0.00 0.23 0.04 94 1000.5
20260508170048 54 0 0.0 0.0 0.00 0.23 0.04 94 1000.6
20260508165535 54 0 0.0 0.0 0.00 0.23 0.04 94 1000.6
20260508165036 54 0 0.0 0.0 0.00 0.23 0.04 94 1000.5
20260508164547 54 0 0.0 0.0 0.00 0.23 0.04 94 1000.5
20260508164040 54 0 0.0 0.0 0.00 0.23 0.04 94 1000.6
20260508163538 53 0 0.0 0.0 0.00 0.23 0.04 94 1000.6
20260508163049 54 0 0.0 0.0 0.00 0.23 0.04 94 1000.6
20260508162538 54 0 0.0 0.0 0.00 0.23 0.04 94 1000.5
20260508162039 53 0 0.0 0.0 0.00 0.23 0.04 93 1000.4
20260508161546 53 0 0.0 0.0 0.00 0.23 0.04 93 1000.5
20260508161038 53 0 0.0 0.0 0.00 0.23 0.04 93 1000.4
20260508160543 54 0 0.0 0.0 0.00 0.23 0.04 93 1000.4
20260508160105 54 0 0.0 0.0 0.00 0.23 0.04 93 1000.5
20260508155541 54 0 0.0 0.0 0.00 0.23 0.04 92 1000.6
20260508155038 55 0 0.0 0.0 0.00 0.23 0.04 93 1000.7
20260508154553 55 0 0.0 0.0 0.00 0.23 0.04 93 1000.6
20260508154038 55 0 0.0 0.9 0.00 0.23 0.04 93 1000.8
20260508153539 56 0 0.0 0.9 0.00 0.23 0.04 93 1000.8
20260508153048 56 0 0.0 0.9 0.00 0.23 0.04 93 1000.9
20260508152538 56 0 0.0 0.9 0.00 0.23 0.04 93 1000.9
20260508152038 56 0 0.0 0.9 0.00 0.23 0.04 92 1001.1
20260508151549 56 0 0.0 0.0 0.00 0.23 0.04 92 1001.1
20260508151039 56 0 0.0 0.0 0.00 0.23 0.04 92 1001.1
20260508150539 56 0 0.0 0.0 0.00 0.23 0.04 92 1001.3
20260508150049 57 0 0.0 0.0 0.00 0.23 0.04 92 1001.3
20260508145539 57 0 0.0 0.0 0.00 0.23 0.04 91 1001.5
20260508145039 57 0 0.0 0.9 0.00 0.23 0.04 91 1001.6
20260508144551 57 0 0.0 0.9 0.00 0.23 0.04 91 1001.6
20260508144039 58 0 0.0 1.7 0.00 0.23 0.04 91 1001.6
20260508143541 58 0 0.0 1.7 0.00 0.23 0.04 91 1001.6
20260508143105 58 0 0.0 5.2 0.00 0.23 0.04 91 1001.7
20260508142539 58 261 0.9 5.2 0.00 0.23 0.04 91 1001.6
20260508142039 58 274 2.6 5.2 0.00 0.23 0.04 91 1001.6
20260508141555 58 238 0.9 4.3 0.00 0.23 0.04 90 1001.5
20260508141039 58 222 1.7 3.5 0.00 0.23 0.04 90 1001.4
20260508140538 58 278 1.7 6.1 0.00 0.23 0.04 90 1001.4
20260508140050 58 230 1.7 7.0 0.00 0.23 0.04 90 1001.3
20260508135542 58 243 2.6 7.0 0.00 0.23 0.04 91 1001.3
20260508135038 58 228 2.6 7.0 0.00 0.23 0.04 91 1001.4
20260508134545 58 240 1.7 7.0 0.00 0.23 0.04 91 1001.4
20260508134040 58 283 2.6 6.1 0.00 0.23 0.04 91 1001.5
20260508133540 59 242 2.6 7.0 0.00 0.23 0.04 91 1001.5
20260508133053 59 287 3.5 7.0 0.00 0.23 0.04 92 1001.5
20260508132539 59 315 2.6 6.1 0.00 0.23 0.04 92 1001.5
20260508132039 59 252 2.6 6.1 0.00 0.23 0.04 92 1001.5
20260508131548 59 249 3.5 8.7 0.00 0.23 0.04 92 1001.6
20260508131039 60 246 3.5 8.7 0.02 0.23 0.04 92 1001.5
20260508130538 60 288 3.5 8.7 0.03 0.23 0.04 91 1001.5
20260508130054 60 284 3.5 8.7 0.04 0.23 0.04 91 1001.5
20260508125539 60 300 2.6 11.3 0.05 0.23 0.04 91 1001.4
20260508125039 60 289 5.2 11.3 0.06 0.23 0.04 91 1001.4
20260508124548 60 272 6.1 11.3 0.07 0.23 0.04 92 1001.3
20260508124038 59 300 6.1 11.3 0.09 0.23 0.04 92 1001.4
20260508123539 58 254 7.0 11.3 0.10 0.23 0.04 93 1001.5
20260508123046 58 261 7.0 12.2 0.11 0.22 0.03 93 1001.6
20260508122539 58 270 7.8 22.6 0.15 0.22 0.03 93 1001.5
20260508122040 58 274 8.7 22.6 0.16 0.22 0.03 94 1001.4
20260508121600 57 269 10.4 22.6 0.16 0.22 0.03 94 1001.4